Athens, OH

2:48 PM EST on November 21, 2017 (GMT -0500)
Ohio University

Weather History for KUNI - September, 2013

Change the Weather History Date:

Saturday, September 28, 2013

  Actual Average (KPKB) Record (KPKB)
Temperature  
Mean Temperature 60 °F -  
Max Temperature 75 °F 71 °F 92 °F (1959)
Min Temperature 45 °F 50 °F 36 °F (1942)
Degree Days  
Heating Degree Days 5    
Growing Degree Days 10 (Base 50)    
Moisture  
Dew Point 52 °F    
Average Humidity 79    
Maximum Humidity 97    
Minimum Humidity 43    
Precipitation  
Precipitation 0.00 in - - ()
Sea Level Pressure  
Sea Level Pressure 30.16 in    
Wind  
Wind Speed 1 mph (South)    
Max Wind Speed 7 mph    
Max Gust Speed -    
Visibility 8 miles    
Events Fog    
Averages and records for this station are not official NWS values.
T = Trace of Precipitation, MM = Missing Value Source: NWS Daily Summary

Daily Weather History Graph

Daily Weather History Graph

Search for Another Location

Airport or City:

Trip Planner

Search our weather history database for the weather conditions in past years. The results will help you decide how hot, cold, wet, or windy it might be!

Date:

Astronomy

Sep. 28, 2013 Rise Set
Actual Time 7:22 AM EDT 7:15 PM EDT
Civil Twilight 6:55 AM EDT 7:42 PM EDT
Nautical Twilight 6:24 AM EDT 8:13 PM EDT
Astronomical Twilight 5:53 AM EDT 8:44 PM EDT
Moon 1:10 AM EDT (9/28) 3:32 PM EDT (9/28)
Length of Visible Light 12h 46m
Length of Day
11h 53m
Last Quarter, 36% of the Moon is Illuminated
Sep 28
Last Quarter
Oct 4
New
Oct 11
First Quarter
Oct 18
Full
Oct 26
Last Quarter

Hourly Weather History & Observations

Time (EDT) Temp. Dew Point Humidity Pressure Visibility Wind Dir Wind Speed Gust Speed Precip Events Conditions
12:15 AM 52.0 °F 50.4 °F 94% 30.16 in 10.0 mi Calm Calm - N/A   Clear
12:35 AM 51.8 °F 50.0 °F 94% 30.16 in 10.0 mi Calm Calm - N/A   Clear
12:55 AM 51.3 °F 49.5 °F 94% 30.16 in 10.0 mi Calm Calm - N/A   Clear
1:15 AM 50.9 °F 49.3 °F 94% 30.16 in 10.0 mi Calm Calm - N/A   Clear
1:35 AM 50.2 °F 48.7 °F 95% 30.16 in 4.0 mi Calm Calm - N/A   Clear
1:55 AM 49.8 °F 48.2 °F 94% 30.16 in 10.0 mi Calm Calm - N/A   Clear
2:15 AM 49.8 °F 48.4 °F 95% 30.16 in 10.0 mi Calm Calm - N/A   Clear
2:35 AM 49.5 °F 48.0 °F 95% 30.16 in 5.0 mi Calm Calm - N/A   Clear
2:55 AM 49.1 °F 47.8 °F 95% 30.16 in 7.0 mi Calm Calm - N/A   Clear
3:15 AM 48.9 °F 47.7 °F 95% 30.16 in 1.2 mi Calm Calm - N/A   Scattered Clouds
3:35 AM 48.2 °F 46.9 °F 95% 30.15 in 1.2 mi Calm Calm - N/A   Scattered Clouds
3:55 AM 47.5 °F 46.4 °F 96% 30.16 in 0.8 mi Calm Calm - N/A   Overcast
4:15 AM 47.8 °F 46.8 °F 96% 30.16 in 2.0 mi Calm Calm - N/A   Mostly Cloudy
4:35 AM 47.5 °F 46.4 °F 96% 30.16 in 10.0 mi Calm Calm - N/A   Clear
4:55 AM 46.6 °F 45.5 °F 96% 30.17 in 0.2 mi Calm Calm - N/A Fog Fog
5:15 AM 47.3 °F 46.4 °F 97% 30.17 in 10.0 mi Calm Calm - N/A   Scattered Clouds
5:35 AM 46.4 °F 45.5 °F 97% 30.17 in 10.0 mi Calm Calm - N/A   Scattered Clouds
5:55 AM 45.5 °F 44.6 °F 97% 30.18 in 7.0 mi Calm Calm - N/A   Clear
6:15 AM 45.5 °F 44.6 °F 97% 30.18 in 2.0 mi Calm Calm - N/A   Mostly Cloudy
6:35 AM 45.5 °F 44.6 °F 97% 30.19 in 0.5 mi Calm Calm - N/A Fog Fog
6:55 AM 45.5 °F 44.6 °F 97% 30.19 in 0.5 mi Calm Calm - N/A Fog Fog
7:15 AM 45.5 °F 44.6 °F 97% 30.20 in 0.5 mi Calm Calm - N/A Fog Fog
7:35 AM 45.5 °F 44.6 °F 97% 30.21 in 1.8 mi Calm Calm - N/A   Mist
7:55 AM 45.9 °F 45.0 °F 97% 30.21 in 10.0 mi Calm Calm - N/A   Clear
8:15 AM 47.1 °F 46.2 °F 97% 30.21 in 10.0 mi Calm Calm - N/A   Clear
8:35 AM 48.9 °F 48.0 °F 97% 30.22 in 10.0 mi Calm Calm - N/A   Clear
8:55 AM 51.4 °F 50.5 °F 97% 30.22 in 10.0 mi Calm Calm - N/A   Clear
9:15 AM 53.6 °F 52.5 °F 96% 30.22 in 10.0 mi Calm Calm - N/A   Clear
9:35 AM 55.9 °F 54.1 °F 94% 30.22 in 10.0 mi Calm Calm - N/A   Clear
9:55 AM 61.0 °F 55.9 °F 83% 30.23 in 10.0 mi SSE 3.5 mph - N/A   Clear
10:15 AM 63.1 °F 55.2 °F 75% 30.23 in 10.0 mi SSE 4.6 mph - N/A   Clear
10:35 AM 64.9 °F 55.9 °F 73% 30.22 in 10.0 mi South 3.5 mph - N/A   Clear
10:55 AM 65.3 °F 55.4 °F 70% 30.23 in 10.0 mi South 6.9 mph - N/A   Clear
11:15 AM 67.3 °F 56.1 °F 67% 30.22 in 10.0 mi SW 4.6 mph - N/A   Clear
11:35 AM 67.3 °F 56.1 °F 67% 30.22 in 10.0 mi SSW 3.5 mph - N/A   Clear
11:55 AM 68.7 °F 56.1 °F 64% 30.22 in 10.0 mi SSE 3.5 mph - N/A   Clear
12:15 PM 69.8 °F 56.8 °F 63% 30.21 in 10.0 mi Calm Calm - N/A   Clear
12:35 PM 72.0 °F 56.1 °F 57% 30.20 in 10.0 mi East 4.6 mph - N/A   Clear
12:55 PM 72.0 °F 55.6 °F 56% 30.20 in 10.0 mi Calm Calm - N/A   Clear
1:15 PM 72.9 °F 54.9 °F 53% 30.20 in 10.0 mi Calm Calm - N/A   Clear
1:35 PM 73.0 °F 54.1 °F 51% 30.19 in 10.0 mi Calm Calm - N/A   Clear
1:55 PM 74.3 °F 55.0 °F 51% 30.18 in 10.0 mi Calm Calm - N/A   Clear
2:15 PM 74.3 °F 53.1 °F 47% 30.17 in 10.0 mi SSE 3.5 mph - N/A   Clear
2:35 PM 75.2 °F 53.6 °F 47% 30.16 in 10.0 mi Calm Calm - N/A   Clear
2:55 PM 75.2 °F 53.8 °F 47% 30.16 in 10.0 mi South 6.9 mph - N/A   Scattered Clouds
3:15 PM 75.7 °F 53.2 °F 45% 30.15 in 10.0 mi SSW 3.5 mph - N/A   Clear
3:35 PM 75.4 °F 52.5 °F 45% 30.15 in 10.0 mi SSE 5.8 mph - N/A   Clear
3:55 PM 75.0 °F 51.4 °F 44% 30.14 in 10.0 mi Calm Calm - N/A   Clear
4:15 PM 75.4 °F 51.6 °F 43% 30.14 in 10.0 mi Calm Calm - N/A   Clear
4:35 PM 75.2 °F 53.1 °F 46% 30.13 in 10.0 mi South 3.5 mph - N/A   Clear
4:55 PM 73.6 °F 53.8 °F 50% 30.13 in 10.0 mi Calm Calm - N/A   Clear
5:15 PM 75.0 °F 54.3 °F 48% 30.13 in 10.0 mi Calm Calm - N/A   Clear
5:35 PM 75.4 °F 53.6 °F 47% 30.13 in 10.0 mi SSE 3.5 mph - N/A   Clear
5:55 PM 74.8 °F 54.7 °F 49% 30.13 in 10.0 mi Calm Calm - N/A   Clear
6:15 PM 73.9 °F 53.8 °F 49% 30.12 in 10.0 mi Calm Calm - N/A   Clear
6:35 PM 73.0 °F 54.7 °F 52% 30.12 in 10.0 mi Calm Calm - N/A   Clear
6:55 PM 68.2 °F 58.5 °F 71% 30.12 in 10.0 mi Calm Calm - N/A   Clear
7:15 PM 65.5 °F 58.3 °F 77% 30.12 in 10.0 mi Calm Calm - N/A   Clear
7:35 PM 64.0 °F 57.4 °F 79% 30.12 in 10.0 mi Calm Calm - N/A   Clear
7:55 PM 61.3 °F 57.0 °F 86% 30.11 in 10.0 mi Calm Calm - N/A   Clear
8:15 PM 60.3 °F 56.8 °F 88% 30.11 in 10.0 mi Calm Calm - N/A   Clear
8:35 PM 59.2 °F 56.1 °F 90% 30.12 in 10.0 mi Calm Calm - N/A   Clear
8:55 PM 58.3 °F 55.4 °F 90% 30.12 in 10.0 mi Calm Calm - N/A   Clear
9:15 PM 57.6 °F 55.2 °F 92% 30.12 in 10.0 mi Calm Calm - N/A   Clear
9:35 PM 56.5 °F 54.7 °F 94% 30.12 in 7.0 mi Calm Calm - N/A   Clear
9:55 PM 56.7 °F 55.0 °F 94% 30.12 in 10.0 mi Calm Calm - N/A   Clear
10:15 PM 56.3 °F 54.5 °F 94% 30.12 in 10.0 mi Calm Calm - N/A   Clear
10:35 PM 55.4 °F 53.8 °F 94% 30.12 in 10.0 mi Calm Calm - N/A   Clear
10:55 PM 55.4 °F 53.8 °F 94% 30.11 in 10.0 mi Calm Calm - N/A   Clear
11:15 PM 54.0 °F 52.5 °F 95% 30.11 in 1.0 mi Calm Calm - N/A   Mist
11:35 PM 54.3 °F 53.1 °F 95% 30.11 in 5.0 mi Calm Calm - N/A   Clear
11:55 PM 53.2 °F 51.8 °F 95% 30.11 in 5.0 mi Calm Calm - N/A   Clear